Flag for Israel Weather past 2 weeks in Beersheba, Israel

Now
82 °F

Passing clouds.


Feels Like: 88 °F
Forecast: 74 / 90 °F
Wind: 5 mph from Northwest

Location: Ben Gurion International Airport

Current Time: Sep 4, 2015 at 1:25:12 AM

Latest Report: Sep 4, 2015 at 12:20 AM


Visibility: N/A

Pressure: 29.83 "Hg

Humidity: 74%

Dew point: 73 °F

Location of BeershebaLocation

Historic Weather in Beersheba — Graph

°F

Beersheba temperature yesterday

Maximum temperature yesterday: 91 °F (at 1:20 PM)
Minimum temperature yesterday: 77 °F (at 6:20 AM)
Average temperature yesterday: 84 °F

Past Weeks' High & Low Weather Summary

 TemperatureHumidityPressure
High91 °F (Aug 20, 1:50 PM)83% (Aug 28, 4:20 AM)29.89 "Hg (Aug 28, 4:20 AM)
Low75 °F (Aug 26, 4:20 AM)46% (Aug 25, 12:20 PM)29.71 "Hg (Aug 23, 3:20 PM)
Average83 °F65%29.82 "Hg
* Reported Aug 19 11:20 PM — Sep 3 11:20 PM, Beersheba, Weather by CustomWeather, © 2015

Note: Actual official high and low records may vary slightly from our data, if they occured in-between our weather recording intervals... More about our weather records

Advertising

Beersheba weather history for previous 24 hours

 ConditionsComfort  
Time TempWeatherWind HumidityBarometerVisibility
11:20 PM
Thu, Sep 3
82 °FPassing clouds.6 mph74%29.83 "HgN/A
10:50 PM82 °FPassing clouds.5 mph74%29.83 "HgN/A
10:20 PM82 °FPassing clouds.6 mph74%29.83 "HgN/A
9:50 PM82 °FPassing clouds.7 mph74%29.83 "HgN/A
9:20 PM82 °FPassing clouds.7 mph74%29.83 "HgN/A
8:50 PM84 °FPassing clouds.8 mph70%29.83 "HgN/A
8:20 PM84 °FPassing clouds.9 mph70%29.83 "HgN/A
7:50 PM84 °FScattered clouds.8 mph70%29.83 "HgN/A
7:20 PM84 °FScattered clouds.10 mph70%29.80 "HgN/A
6:50 PM84 °FScattered clouds.10 mph70%29.80 "HgN/A
6:20 PM86 °FPassing clouds.13 mph66%29.80 "HgN/A
5:50 PM86 °FPassing clouds.14 mph66%29.80 "HgN/A
5:20 PM88 °FSunny.14 mph62%29.80 "Hg10 mi
4:50 PM88 °FSunny.13 mph59%29.80 "Hg10 mi
4:20 PM88 °FPassing clouds.12 mph62%29.80 "HgN/A
3:50 PM90 °FSunny.13 mph59%29.80 "Hg10 mi
3:20 PM90 °FSunny.14 mph59%29.80 "Hg10 mi
2:50 PM90 °FPassing clouds.14 mph59%29.80 "HgN/A
2:20 PM90 °FPassing clouds.14 mph59%29.83 "HgN/A
1:50 PM91 °FPassing clouds.10 mph52%29.83 "HgN/A
1:20 PM91 °FPassing clouds.9 mph52%29.83 "HgN/A
12:50 PM90 °FPassing clouds.9 mph55%29.83 "HgN/A
12:20 PM90 °FPassing clouds.10 mph55%29.83 "HgN/A
11:50 AM90 °FPassing clouds.9 mph59%29.83 "HgN/A
11:20 AM90 °FScattered clouds.8 mph59%29.86 "HgN/A
10:50 AM88 °FScattered clouds.6 mph59%29.86 "HgN/A
10:20 AM88 °FScattered clouds.2 mph62%29.86 "HgN/A
9:50 AM86 °FScattered clouds.3 mph62%29.86 "HgN/A
9:20 AM84 °FScattered clouds.3 mph70%29.86 "HgN/A
8:50 AM81 °FPassing clouds.3 mph74%29.86 "HgN/A
8:20 AM81 °FPassing clouds.6 mph74%29.86 "HgN/A
7:50 AM79 °FPassing clouds.6 mph79%29.86 "HgN/A
7:20 AM79 °FPassing clouds.5 mph79%29.86 "HgN/A
6:50 AM77 °FPassing clouds.1 mph79%29.86 "HgN/A
6:20 AM77 °FPassing clouds.3 mph83%29.86 "HgN/A
5:50 AM79 °FPassing clouds.5 mph79%29.86 "HgN/A
5:20 AM79 °FPassing clouds.5 mph79%29.86 "HgN/A
4:50 AM79 °FPassing clouds.6 mph79%29.83 "HgN/A
4:20 AM79 °FPassing clouds.7 mph79%29.83 "HgN/A
3:50 AM79 °FPassing clouds.6 mph79%29.83 "HgN/A
3:20 AM79 °FPassing clouds.5 mph79%29.83 "HgN/A
2:50 AM79 °FPassing clouds.3 mph79%29.86 "HgN/A
2:20 AM79 °FPassing clouds.5 mph79%29.86 "HgN/A
1:50 AM79 °FPassing clouds.5 mph79%29.86 "HgN/A
1:20 AM81 °FPassing clouds.3 mph74%29.86 "HgN/A
Weather by CustomWeather, © 2015

See weather overviewHow to use our weather pages